Time,TemperatureF,DewpointF,PressureIn,WindDirection,WindDirectionDegrees,WindSpeedMPH,WindSpeedGustMPH,Humidity,HourlyPrecipIn,Conditions,Clouds,dailyrainin,SoftwareType,DateUTC
2013-05-19 00:03:00,52.1,49.0,30.30,SW,224,0.0,-999.0,88,-99.99,,,0.00,weatherlink.com 1.10,2013-05-19 04:03:00,
2013-05-19 00:18:00,52.2,49.0,30.30,SW,224,0.0,-999.0,88,-99.99,,,0.00,weatherlink.com 1.10,2013-05-19 04:18:00,
2013-05-19 00:33:00,52.2,49.0,30.30,SW,224,0.0,-999.0,88,-99.99,,,0.00,weatherlink.com 1.10,2013-05-19 04:33:00,
2013-05-19 00:48:00,52.2,49.0,30.30,SW,224,0.0,-999.0,88,-99.99,,,0.00,weatherlink.com 1.10,2013-05-19 04:48:00,
2013-05-19 01:03:00,51.4,48.0,30.30,SW,224,0.0,-999.0,87,-99.99,,,0.00,weatherlink.com 1.10,2013-05-19 05:03:00,
2013-05-19 01:18:00,51.0,48.0,30.29,SW,224,0.0,-999.0,89,-99.99,,,0.00,weatherlink.com 1.10,2013-05-19 05:18:00,
2013-05-19 01:33:00,50.8,48.0,30.29,SW,224,0.0,-999.0,89,-99.99,,,0.00,weatherlink.com 1.10,2013-05-19 05:33:00,
2013-05-19 01:48:00,50.5,47.0,30.29,SW,224,0.0,-999.0,89,-99.99,,,0.00,weatherlink.com 1.10,2013-05-19 05:48:00,
2013-05-19 02:03:00,50.4,48.0,30.29,SW,224,0.0,-999.0,90,-99.99,,,0.00,weatherlink.com 1.10,2013-05-19 06:03:00,
2013-05-19 02:18:00,50.5,48.0,30.29,SW,224,0.0,-999.0,90,-99.99,,,0.00,weatherlink.com 1.10,2013-05-19 06:18:00,
2013-05-19 02:33:00,50.7,48.0,30.29,SW,224,0.0,-999.0,91,-99.99,,,0.00,weatherlink.com 1.10,2013-05-19 06:33:00,
2013-05-19 02:48:00,51.2,49.0,30.29,SW,224,0.0,-999.0,91,-99.99,,,0.00,weatherlink.com 1.10,2013-05-19 06:48:00,
2013-05-19 03:03:00,51.0,49.0,30.29,SW,224,0.0,-999.0,91,-99.99,,,0.00,weatherlink.com 1.10,2013-05-19 07:03:00,
2013-05-19 03:18:00,50.8,48.0,30.29,SW,224,0.0,-999.0,91,-99.99,,,0.00,weatherlink.com 1.10,2013-05-19 07:18:00,
2013-05-19 03:33:00,50.6,48.0,30.29,SW,224,0.0,-999.0,91,-99.99,,,0.00,weatherlink.com 1.10,2013-05-19 07:33:00,
2013-05-19 03:48:00,50.6,48.0,30.29,SW,224,0.0,-999.0,91,-99.99,,,0.00,weatherlink.com 1.10,2013-05-19 07:48:00,
2013-05-19 04:03:00,50.6,48.0,30.29,SW,224,0.0,-999.0,91,-99.99,,,0.00,weatherlink.com 1.10,2013-05-19 08:03:00,
2013-05-19 04:18:00,50.8,48.0,30.29,SW,224,0.0,-999.0,91,-99.99,,,0.00,weatherlink.com 1.10,2013-05-19 08:18:00,
2013-05-19 04:33:00,51.2,49.0,30.29,SW,224,0.0,-999.0,91,-99.99,,,0.00,weatherlink.com 1.10,2013-05-19 08:33:00,
2013-05-19 04:48:00,51.4,49.0,30.29,SW,224,0.0,-999.0,90,-99.99,,,0.00,weatherlink.com 1.10,2013-05-19 08:48:00,
2013-05-19 05:03:00,51.5,49.0,30.30,SW,224,0.0,-999.0,90,-99.99,,,0.00,weatherlink.com 1.10,2013-05-19 09:03:00,
2013-05-19 05:18:00,51.5,49.0,30.30,SW,224,0.0,-999.0,90,-99.99,,,0.00,weatherlink.com 1.10,2013-05-19 09:18:00,
2013-05-19 05:33:00,51.8,49.0,30.30,SW,224,0.0,-999.0,90,-99.99,,,0.00,weatherlink.com 1.10,2013-05-19 09:33:00,
2013-05-19 05:48:00,51.6,49.0,30.31,SW,224,0.0,-999.0,89,-99.99,,,0.00,weatherlink.com 1.10,2013-05-19 09:48:00,
2013-05-19 06:03:00,51.5,49.0,30.31,SW,224,0.0,-999.0,90,-99.99,,,0.00,weatherlink.com 1.10,2013-05-19 10:03:00,
2013-05-19 06:18:00,51.8,49.0,30.31,SW,224,0.0,-999.0,90,-99.99,,,0.00,weatherlink.com 1.10,2013-05-19 10:18:00,
2013-05-19 06:33:00,51.9,49.0,30.31,SW,224,0.0,-999.0,90,-99.99,,,0.00,weatherlink.com 1.10,2013-05-19 10:33:00,
2013-05-19 06:48:00,52.1,49.0,30.32,SW,224,0.0,-999.0,90,-99.99,,,0.00,weatherlink.com 1.10,2013-05-19 10:48:00,
2013-05-19 07:03:00,52.4,50.0,30.32,SW,224,0.0,-999.0,90,-99.99,,,0.00,weatherlink.com 1.10,2013-05-19 11:03:00,
2013-05-19 07:18:00,52.7,50.0,30.32,NNW,340,0.0,-999.0,90,-99.99,,,0.00,weatherlink.com 1.10,2013-05-19 11:18:00,
2013-05-19 07:33:00,52.9,50.0,30.32,NNW,340,0.0,-999.0,90,-99.99,,,0.00,weatherlink.com 1.10,2013-05-19 11:33:00,
2013-05-19 07:48:00,53.3,51.0,30.32,NNW,340,0.0,-999.0,90,-99.99,,,0.00,weatherlink.com 1.10,2013-05-19 11:48:00,
2013-05-19 08:03:00,53.7,51.0,30.32,NW,325,0.0,-999.0,89,-99.99,,,0.00,weatherlink.com 1.10,2013-05-19 12:03:00,
2013-05-19 08:18:00,54.1,51.0,30.33,NW,326,0.0,-999.0,90,-99.99,,,0.00,weatherlink.com 1.10,2013-05-19 12:18:00,
2013-05-19 08:33:00,54.6,52.0,30.32,NW,324,0.0,-999.0,89,-99.99,,,0.00,weatherlink.com 1.10,2013-05-19 12:33:00,
2013-05-19 08:48:00,54.9,52.0,30.33,NW,324,0.0,-999.0,88,-99.99,,,0.00,weatherlink.com 1.10,2013-05-19 12:48:00,
2013-05-19 09:03:00,55.1,52.0,30.34,NW,324,0.0,-999.0,88,-99.99,,,0.00,weatherlink.com 1.10,2013-05-19 13:03:00,
2013-05-19 09:18:00,55.3,52.0,30.34,SW,220,0.0,-999.0,88,-99.99,,,0.00,weatherlink.com 1.10,2013-05-19 13:18:00,
2013-05-19 09:33:00,55.8,52.0,30.34,SW,229,0.0,-999.0,87,-99.99,,,0.00,weatherlink.com 1.10,2013-05-19 13:33:00,
2013-05-19 09:48:00,56.1,53.0,30.34,SW,231,0.0,-999.0,88,-99.99,,,0.00,weatherlink.com 1.10,2013-05-19 13:48:00,
2013-05-19 10:03:00,56.6,53.0,30.34,South,189,2.0,-999.0,88,-99.99,,,0.00,weatherlink.com 1.10,2013-05-19 14:03:00,
2013-05-19 10:18:00,56.7,54.0,30.34,South,189,0.0,-999.0,89,-99.99,,,0.01,weatherlink.com 1.10,2013-05-19 14:18:00,
2013-05-19 10:33:00,56.7,54.0,30.34,South,189,0.0,-999.0,90,-99.99,,,0.01,weatherlink.com 1.10,2013-05-19 14:33:00,
2013-05-19 10:48:00,56.5,54.0,30.34,South,189,0.0,-999.0,90,-99.99,,,0.01,weatherlink.com 1.10,2013-05-19 14:48:00,
2013-05-19 11:03:00,56.6,54.0,30.34,South,189,0.0,-999.0,91,-99.99,,,0.01,weatherlink.com 1.10,2013-05-19 15:03:00,
2013-05-19 11:18:00,56.6,54.0,30.34,SSW,206,0.0,-999.0,91,-99.99,,,0.01,weatherlink.com 1.10,2013-05-19 15:18:00,
2013-05-19 11:33:00,56.4,54.0,30.34,WSW,240,0.0,-999.0,91,-99.99,,,0.01,weatherlink.com 1.10,2013-05-19 15:33:00,
2013-05-19 11:48:00,56.4,54.0,30.33,WSW,237,0.0,-999.0,91,-99.99,,,0.01,weatherlink.com 1.10,2013-05-19 15:48:00,
2013-05-19 12:03:00,56.4,54.0,30.33,WSW,237,0.0,-999.0,91,-99.99,,,0.02,weatherlink.com 1.10,2013-05-19 16:03:00,
2013-05-19 12:18:00,56.2,54.0,30.33,NNE,32,0.0,-999.0,91,-99.99,,,0.02,weatherlink.com 1.10,2013-05-19 16:18:00,
2013-05-19 12:33:00,55.8,54.0,30.33,SW,220,0.0,-999.0,92,-99.99,,,0.02,weatherlink.com 1.10,2013-05-19 16:33:00,
2013-05-19 12:48:00,55.5,53.0,30.32,South,179,0.0,-999.0,92,-99.99,,,0.03,weatherlink.com 1.10,2013-05-19 16:48:00,
2013-05-19 13:03:00,55.4,53.0,30.32,South,190,0.0,-999.0,92,-99.99,,,0.03,weatherlink.com 1.10,2013-05-19 17:03:00,
2013-05-19 13:18:00,55.3,53.0,30.32,ESE,112,0.0,-999.0,92,-99.99,,,0.03,weatherlink.com 1.10,2013-05-19 17:18:00,
2013-05-19 13:33:00,55.3,53.0,30.31,SE,131,0.0,-999.0,92,-99.99,,,0.03,weatherlink.com 1.10,2013-05-19 17:33:00,
2013-05-19 13:48:00,55.1,53.0,30.30,South,174,0.0,-999.0,92,-99.99,,,0.03,weatherlink.com 1.10,2013-05-19 17:48:00,
2013-05-19 14:03:00,55.1,53.0,30.30,SW,220,0.0,-999.0,93,-99.99,,,0.04,weatherlink.com 1.10,2013-05-19 18:03:00,
2013-05-19 14:18:00,55.1,53.0,30.30,SW,218,0.0,-999.0,93,-99.99,,,0.04,weatherlink.com 1.10,2013-05-19 18:18:00,
2013-05-19 14:33:00,55.2,53.0,30.30,SSW,210,0.0,-999.0,93,-99.99,,,0.04,weatherlink.com 1.10,2013-05-19 18:33:00,
2013-05-19 14:48:00,55.0,53.0,30.30,SSW,209,0.0,-999.0,93,-99.99,,,0.05,weatherlink.com 1.10,2013-05-19 18:48:00,
2013-05-19 15:03:00,55.1,53.0,30.30,SW,217,0.0,-999.0,93,-99.99,,,0.05,weatherlink.com 1.10,2013-05-19 19:03:00,
2013-05-19 15:18:00,55.1,53.0,30.29,SW,217,0.0,-999.0,93,-99.99,,,0.05,weatherlink.com 1.10,2013-05-19 19:18:00,
2013-05-19 15:33:00,55.3,53.0,30.28,SSE,168,0.0,-999.0,93,-99.99,,,0.06,weatherlink.com 1.10,2013-05-19 19:33:00,
2013-05-19 15:48:00,55.2,53.0,30.28,SW,224,0.0,-999.0,93,-99.99,,,0.07,weatherlink.com 1.10,2013-05-19 19:48:00,
2013-05-19 16:03:00,55.2,53.0,30.28,SW,221,0.0,-999.0,93,-99.99,,,0.07,weatherlink.com 1.10,2013-05-19 20:03:00,
2013-05-19 16:18:00,55.4,54.0,30.27,SW,220,0.0,-999.0,94,-99.99,,,0.08,weatherlink.com 1.10,2013-05-19 20:18:00,
2013-05-19 16:33:00,55.5,54.0,30.27,SW,214,0.0,-999.0,93,-99.99,,,0.08,weatherlink.com 1.10,2013-05-19 20:33:00,
2013-05-19 16:48:00,55.4,54.0,30.27,SW,214,0.0,-999.0,93,-99.99,,,0.09,weatherlink.com 1.10,2013-05-19 20:48:00,
2013-05-19 17:03:00,55.4,54.0,30.27,SSW,210,0.0,-999.0,93,-99.99,,,0.09,weatherlink.com 1.10,2013-05-19 21:03:00,
2013-05-19 17:18:00,55.4,54.0,30.27,SSW,209,0.0,-999.0,93,-99.99,,,0.09,weatherlink.com 1.10,2013-05-19 21:18:00,
2013-05-19 17:33:00,55.3,54.0,30.26,SSW,205,0.0,-999.0,94,-99.99,,,0.10,weatherlink.com 1.10,2013-05-19 21:33:00,
2013-05-19 17:48:00,55.4,54.0,30.25,SSW,195,0.0,-999.0,94,-99.99,,,0.10,weatherlink.com 1.10,2013-05-19 21:48:00,
2013-05-19 18:03:00,55.3,54.0,30.26,ESE,112,0.0,-999.0,94,-99.99,,,0.10,weatherlink.com 1.10,2013-05-19 22:03:00,
2013-05-19 18:18:00,55.2,54.0,30.25,ESE,112,1.0,-999.0,94,-99.99,,,0.11,weatherlink.com 1.10,2013-05-19 22:18:00,
2013-05-19 18:33:00,55.0,53.0,30.25,ESE,122,0.0,-999.0,94,-99.99,,,0.11,weatherlink.com 1.10,2013-05-19 22:33:00,
2013-05-19 18:48:00,55.0,53.0,30.25,ESE,116,0.0,-999.0,94,-99.99,,,0.11,weatherlink.com 1.10,2013-05-19 22:48:00,
2013-05-19 19:03:00,54.8,53.0,30.25,East,98,0.0,-999.0,94,-99.99,,,0.11,weatherlink.com 1.10,2013-05-19 23:03:00,
2013-05-19 19:18:00,54.8,53.0,30.25,ESE,119,0.0,-999.0,94,-99.99,,,0.12,weatherlink.com 1.10,2013-05-19 23:18:00,
2013-05-19 19:33:00,54.8,53.0,30.24,SSE,168,0.0,-999.0,94,-99.99,,,0.12,weatherlink.com 1.10,2013-05-19 23:33:00,
2013-05-19 19:48:00,54.7,53.0,30.24,SSW,201,0.0,-999.0,94,-99.99,,,0.12,weatherlink.com 1.10,2013-05-19 23:48:00,
2013-05-19 20:03:00,54.7,53.0,30.24,SSW,197,0.0,-999.0,94,-99.99,,,0.13,weatherlink.com 1.10,2013-05-20 00:03:00,
2013-05-19 20:18:00,54.7,53.0,30.24,SSW,197,0.0,-999.0,94,-99.99,,,0.14,weatherlink.com 1.10,2013-05-20 00:18:00,
2013-05-19 20:33:00,54.7,53.0,30.24,SSW,197,0.0,-999.0,94,-99.99,,,0.14,weatherlink.com 1.10,2013-05-20 00:33:00,
2013-05-19 20:48:00,54.7,53.0,30.24,SSW,197,0.0,-999.0,94,-99.99,,,0.14,weatherlink.com 1.10,2013-05-20 00:48:00,
2013-05-19 21:03:00,54.6,53.0,30.24,SSW,197,0.0,-999.0,94,-99.99,,,0.15,weatherlink.com 1.10,2013-05-20 01:03:00,
2013-05-19 21:18:00,54.6,53.0,30.23,SSW,197,0.0,-999.0,94,-99.99,,,0.15,weatherlink.com 1.10,2013-05-20 01:18:00,
2013-05-19 21:33:00,54.6,53.0,30.23,SSW,196,0.0,-999.0,94,-99.99,,,0.15,weatherlink.com 1.10,2013-05-20 01:33:00,
2013-05-19 21:48:00,54.6,53.0,30.23,SSW,196,0.0,-999.0,94,-99.99,,,0.15,weatherlink.com 1.10,2013-05-20 01:48:00,
2013-05-19 22:03:00,54.6,53.0,30.22,SSW,196,0.0,-999.0,94,-99.99,,,0.15,weatherlink.com 1.10,2013-05-20 02:03:00,
2013-05-19 22:18:00,54.7,53.0,30.22,SSW,197,0.0,-999.0,94,-99.99,,,0.15,weatherlink.com 1.10,2013-05-20 02:18:00,
2013-05-19 22:33:00,54.7,53.0,30.22,South,191,1.0,-999.0,94,-99.99,,,0.15,weatherlink.com 1.10,2013-05-20 02:33:00,
2013-05-19 22:48:00,54.8,53.0,30.21,SSE,154,0.0,-999.0,94,-99.99,,,0.15,weatherlink.com 1.10,2013-05-20 02:48:00,
2013-05-19 23:03:00,54.7,53.0,30.21,South,174,0.0,-999.0,94,-99.99,,,0.15,weatherlink.com 1.10,2013-05-20 03:03:00,
2013-05-19 23:18:00,54.8,53.0,30.20,SW,228,0.0,-999.0,94,-99.99,,,0.15,weatherlink.com 1.10,2013-05-20 03:18:00,
2013-05-19 23:33:00,54.9,53.0,30.20,SW,224,0.0,-999.0,94,-99.99,,,0.15,weatherlink.com 1.10,2013-05-20 03:33:00,
2013-05-19 23:48:00,54.9,53.0,30.19,SW,224,0.0,-999.0,94,-99.99,,,0.15,weatherlink.com 1.10,2013-05-20 03:48:00,